When you browse on this site, cookies collect data to enhance your experience and personalize the content and advertising you see.
Visit our Privacy Policy to learn more. By continuing to use the site, you agree to this use of cookies and data.
  • In Austria
  • List of Countries
  • For 7 days
  • Water Temperature
  • Satellite Maps
  • Weather Map
  • News
  • Weather Widgets
  • user-avatar
    Login

    Hourly Weather Fez

    Today, 11 December, Tuesday

    Time Temperature Precipitation Wind Pressure Humidity
    00:00 +14°C° 0 mm 0 mps 735 mmHg 49%
    01:00 +14°C° 0 mm 0 mps 735 mmHg 50%
    02:00 +13°C° 0 mm 0 mps 734 mmHg 51%
    03:00 +13°C° 0 mm 0 mps 734 mmHg 51%
    04:00 +13°C° 0 mm 0 mps 734 mmHg 52%
    05:00 +12°C° 0 mm 0 mps 734 mmHg 53%
    06:00 +12°C° 0 mm 0 mps 734 mmHg 54%
    07:00 +13°C° 0 mm 0 mps 734 mmHg 51%
    08:00 +14°C° 0 mm 0 mps 734 mmHg 49%
    09:00 +15°C° 0 mm 0 mps 734 mmHg 46%
    10:00 +19°C° 0 mm 1 mps 734 mmHg 44%
    11:00 +20°C° 0 mm 1 mps 735 mmHg 42%
    12:00 +20°C° 0 mm 2 mps 735 mmHg 40%
    13:00 +20°C° 0 mm 2 mps 734 mmHg 41%
    14:00 +20°C° 0 mm 2 mps 734 mmHg 43%
    15:00 +20°C° 0 mm 2 mps 734 mmHg 45%
    16:00 +19°C° 0 mm 2 mps 734 mmHg 54%
    17:00 +18°C° 0 mm 1 mps 734 mmHg 63%
    18:00 +16°C° 0 mm 1 mps 734 mmHg 72%
    19:00 +15°C° 0 mm 1 mps 734 mmHg 74%
    20:00 +15°C° 0 mm 1 mps 734 mmHg 77%
    21:00 +14°C° 0 mm 1 mps 734 mmHg 80%
    22:00 +13°C° 0 mm 0 mps 734 mmHg 81%
    23:00 +12°C° 0 mm 0 mps 734 mmHg 83%

    Tomorrow, 12 December, Wednesday

    Time Temperature Precipitation Wind Pressure Humidity
    00:00 +12°C° 0 mm 0 mps 734 mmHg 85%
    01:00 +12°C° 0 mm 0 mps 734 mmHg 84%
    02:00 +12°C° 0 mm 0 mps 734 mmHg 83%
    03:00 +12°C° 0 mm 0 mps 733 mmHg 83%
    04:00 +11°C° 0 mm 0 mps 734 mmHg 82%
    05:00 +11°C° 0 mm 0 mps 734 mmHg 82%
    06:00 +11°C° 0 mm 0 mps 734 mmHg 81%
    07:00 +12°C° 0 mm 0 mps 734 mmHg 78%
    08:00 +13°C° 0 mm 0 mps 734 mmHg 74%
    09:00 +14°C° 0 mm 0 mps 734 mmHg 71%
    10:00 +16°C° 0 mm 1 mps 734 mmHg 66%
    11:00 +18°C° 0 mm 1 mps 734 mmHg 60%
    12:00 +18°C° 0 mm 2 mps 734 mmHg 55%
    13:00 +19°C° 0 mm 1 mps 734 mmHg 54%
    14:00 +20°C° 0 mm 1 mps 733 mmHg 52%
    15:00 +20°C° 0 mm 1 mps 733 mmHg 51%
    16:00 +19°C° 0 mm 1 mps 733 mmHg 58%
    17:00 +16°C° 0 mm 1 mps 733 mmHg 64%
    18:00 +15°C° 0 mm 1 mps 733 mmHg 71%
    19:00 +15°C° 0 mm 1 mps 733 mmHg 73%
    20:00 +14°C° 0 mm 1 mps 733 mmHg 75%
    21:00 +14°C° 0 mm 1 mps 734 mmHg 77%
    22:00 +13°C° 0 mm 1 mps 734 mmHg 77%
    23:00 +13°C° 0 mm 1 mps 734 mmHg 78%

    Day after tomorrow, 13 December, Thursday

    Time Temperature Precipitation Wind Pressure Humidity
    00:00 +13°C° 0 mm 1 mps 734 mmHg 78%
    01:00 +13°C° 0 mm 1 mps 733 mmHg 80%
    02:00 +13°C° 0 mm 1 mps 733 mmHg 81%
    03:00 +12°C° 0 mm 1 mps 733 mmHg 82%
    04:00 +12°C° 0 mm 1 mps 733 mmHg 78%
    05:00 +13°C° 0 mm 1 mps 733 mmHg 75%
    06:00 +13°C° 0 mm 1 mps 732 mmHg 71%
    07:00 +13°C° 0 mm 2 mps 732 mmHg 72%
    08:00 +14°C° 0 mm 2 mps 733 mmHg 72%
    09:00 +14°C° 0 mm 2 mps 733 mmHg 72%
    10:00 +14°C° 0 mm 3 mps 732 mmHg 66%
    11:00 +15°C° 0 mm 5 mps 732 mmHg 60%
    12:00 +17°C° 0 mm 6 mps 731 mmHg 54%
    13:00 +16°C° 0.4 mm 7 mps 731 mmHg 59%
    14:00 +16°C° 0.4 mm 8 mps 731 mmHg 64%
    15:00 +15°C° 0.4 mm 9 mps 731 mmHg 68%
    16:00 +13°C° 0.8 mm 8 mps 731 mmHg 74%
    17:00 +12°C° 0.8 mm 7 mps 732 mmHg 79%
    18:00 +11°C° 0.8 mm 7 mps 732 mmHg 84%
    19:00 +11°C° 0.1 mm 6 mps 733 mmHg 84%
    20:00 +10°C° 0.1 mm 6 mps 733 mmHg 83%
    21:00 +10°C° 0.1 mm 5 mps 734 mmHg 83%
    22:00 +10°C° 0 mm 5 mps 734 mmHg 83%
    23:00 +9°C° 0 mm 5 mps 734 mmHg 83%

    14 December, Friday

    Time Temperature Precipitation Wind Pressure Humidity
    00:00 +9°C° 0 mm 5 mps 734 mmHg 83%
    01:00 +10°C° 0 mm 4 mps 734 mmHg 84%
    02:00 +10°C° 0 mm 4 mps 734 mmHg 84%
    03:00 +10°C° 0 mm 4 mps 734 mmHg 84%
    04:00 +8°C° 0.1 mm 4 mps 734 mmHg 84%
    05:00 +9°C° 0.1 mm 3 mps 735 mmHg 84%
    06:00 +9°C° 0.1 mm 3 mps 735 mmHg 85%
    07:00 +9°C° 0 mm 3 mps 735 mmHg 81%
    08:00 +10°C° 0 mm 3 mps 736 mmHg 78%
    09:00 +10°C° 0 mm 3 mps 736 mmHg 75%
    10:00 +11°C° 0 mm 3 mps 736 mmHg 70%
    11:00 +12°C° 0 mm 3 mps 736 mmHg 65%
    12:00 +12°C° 0 mm 3 mps 736 mmHg 60%
    13:00 +13°C° 0 mm 3 mps 736 mmHg 60%
    14:00 +13°C° 0 mm 3 mps 736 mmHg 60%
    15:00 +13°C° 0 mm 3 mps 735 mmHg 60%
    16:00 +12°C° 0 mm 3 mps 736 mmHg 65%
    17:00 +12°C° 0 mm 2 mps 736 mmHg 70%
    18:00 +12°C° 0 mm 1 mps 736 mmHg 75%
    19:00 +11°C° 0 mm 1 mps 736 mmHg 76%
    20:00 +11°C° 0 mm 1 mps 737 mmHg 77%
    21:00 +10°C° 0 mm 0 mps 737 mmHg 78%
    22:00 +9°C° 0 mm 0 mps 737 mmHg 79%
    23:00 +9°C° 0 mm 0 mps 737 mmHg 79%

    15 December, Saturday

    Time Temperature Precipitation Wind Pressure Humidity
    00:00 +9°C° 0 mm 0 mps 737 mmHg 80%
    01:00 +8°C° 0 mm 0 mps 736 mmHg 81%
    02:00 +8°C° 0 mm 0 mps 736 mmHg 82%
    03:00 +9°C° 0 mm 1 mps 736 mmHg 83%
    04:00 +9°C° 0 mm 1 mps 736 mmHg 82%
    05:00 +9°C° 0 mm 1 mps 735 mmHg 82%
    06:00 +9°C° 0 mm 1 mps 735 mmHg 82%
    07:00 +10°C° 0 mm 1 mps 736 mmHg 77%
    08:00 +11°C° 0 mm 1 mps 736 mmHg 73%
    09:00 +12°C° 0 mm 1 mps 736 mmHg 68%
    10:00 +14°C° 0 mm 1 mps 736 mmHg 62%
    11:00 +15°C° 0 mm 1 mps 736 mmHg 56%
    12:00 +18°C° 0 mm 1 mps 736 mmHg 49%
    13:00 +18°C° 0 mm 1 mps 736 mmHg 48%
    14:00 +19°C° 0 mm 1 mps 735 mmHg 46%
    15:00 +20°C° 0 mm 1 mps 735 mmHg 45%
    16:00 +18°C° 0 mm 1 mps 735 mmHg 50%
    17:00 +16°C° 0 mm 1 mps 735 mmHg 56%
    18:00 +13°C° 0 mm 0 mps 735 mmHg 61%
    19:00 +14°C° 0 mm 1 mps 735 mmHg 60%
    20:00 +14°C° 0 mm 1 mps 736 mmHg 58%
    21:00 +14°C° 0 mm 1 mps 736 mmHg 57%
    22:00 +14°C° 0 mm 1 mps 736 mmHg 55%
    23:00 +14°C° 0 mm 1 mps 735 mmHg 53%

    16 December, Sunday

    Time Temperature Precipitation Wind Pressure Humidity
    00:00 +14°C° 0 mm 1 mps 735 mmHg 51%
    01:00 +14°C° 0 mm 1 mps 735 mmHg 50%
    02:00 +13°C° 0 mm 1 mps 735 mmHg 48%
    03:00 +13°C° 0 mm 1 mps 734 mmHg 46%
    04:00 +13°C° 0 mm 1 mps 734 mmHg 45%
    05:00 +13°C° 0 mm 1 mps 734 mmHg 43%
    06:00 +13°C° 0 mm 1 mps 734 mmHg 42%
    07:00 +15°C° 0 mm 1 mps 735 mmHg 41%
    08:00 +16°C° 0 mm 1 mps 735 mmHg 40%
    09:00 +18°C° 0 mm 1 mps 736 mmHg 40%
    10:00 +20°C° 0 mm 1 mps 736 mmHg 36%
    11:00 +21°C° 0 mm 1 mps 736 mmHg 32%
    12:00 +23°C° 0 mm 1 mps 736 mmHg 28%
    13:00 +23°C° 0 mm 1 mps 736 mmHg 29%
    14:00 +23°C° 0 mm 2 mps 735 mmHg 30%
    15:00 +23°C° 0 mm 2 mps 735 mmHg 31%
    16:00 +21°C° 0 mm 1 mps 735 mmHg 37%
    17:00 +19°C° 0 mm 1 mps 735 mmHg 44%
    18:00 +15°C° 0 mm 0 mps 735 mmHg 50%
    19:00 +15°C° 0 mm 0 mps 736 mmHg 50%
    20:00 +15°C° 0 mm 0 mps 736 mmHg 51%
    21:00 +14°C° 0 mm 0 mps 736 mmHg 51%
    22:00 +14°C° 0 mm 0 mps 736 mmHg 52%
    23:00 +14°C° 0 mm 0 mps 736 mmHg 52%
    Show more